EA5DFV Weather Reports


time (UTC)temp
F
wind
direction
speed
knots
gust
knots
rain 1hr
in
rain 24hr
in
rain mn
in
humidity
%
barometer
mb
20220525132338 71 10 0.9 7.8 0.00 0.87 0.06 57 1017.8
20220525131825 71 331 2.6 7.8 0.00 0.87 0.06 59 1017.7
20220525131320 71 337 2.6 7.8 0.00 0.87 0.06 58 1017.7
20220525130831 71 329 0.9 7.8 0.00 0.87 0.06 58 1017.6
20220525130322 71 349 2.6 9.6 0.00 0.87 0.06 57 1017.7
20220525125816 71 346 1.7 8.7 0.00 0.87 0.06 54 1017.7
20220525125329 71 320 4.3 9.6 0.00 0.87 0.06 52 1017.7
20220525124827 71 251 1.7 9.6 0.00 0.87 0.06 52 1017.6
20220525124346 71 306 1.7 8.7 0.00 0.87 0.06 53 1017.6
20220525123833 71 333 3.5 11.3 0.00 0.87 0.06 51 1017.6
20220525123324 71 346 4.3 8.7 0.00 0.87 0.06 50 1017.7
20220525122836 71 355 3.5 8.7 0.00 0.87 0.06 52 1017.6
20220525122327 71 338 2.6 8.7 0.00 0.87 0.06 52 1017.8
20220525121836 71 344 4.3 8.7 0.00 0.87 0.06 53 1017.7
20220525121332 71 329 2.6 7.0 0.00 0.87 0.06 53 1017.8
20220525120823 71 25 2.6 7.0 0.00 0.87 0.06 51 1017.6
20220525120321 71 322 2.6 8.7 0.00 0.87 0.06 50 1017.7
20220525115835 71 350 1.7 10.4 0.00 0.87 0.06 49 1017.6
20220525115327 71 333 6.1 10.4 0.00 0.87 0.06 48 1017.6
20220525114838 71 344 0.9 9.6 0.00 0.87 0.06 50 1017.5
20220525114329 71 342 3.5 7.0 0.00 0.87 0.06 50 1017.3
20220525113841 71 323 3.5 8.7 0.00 0.87 0.06 50 1017.4
20220525113332 71 331 4.3 11.3 0.00 0.87 0.06 51 1017.3
20220525112824 71 329 1.7 11.3 0.00 0.87 0.06 50 1017.3
20220525112339 71 355 2.6 7.8 0.00 0.87 0.06 51 1017.3
20220525111832 71 266 0.9 6.1 0.00 0.87 0.06 52 1017.3
20220525111325 70 330 0.0 8.7 0.00 0.87 0.06 53 1017.3
20220525110822 70 355 2.6 9.6 0.00 0.87 0.06 51 1017.3
20220525110316 71 360 2.6 6.1 0.00 0.87 0.06 55 1017.4
20220525105829 70 340 1.7 5.2 0.00 0.87 0.06 52 1017.2
20220525105320 70 329 0.9 6.1 0.00 0.87 0.06 53 1017.3
20220525104831 71 329 1.7 6.1 0.00 0.87 0.06 52 1017.3
20220525104330 71 322 1.7 8.7 0.00 0.87 0.06 54 1017.2
20220525103841 70 336 2.6 8.7 0.00 0.87 0.06 54 1017.2
20220525103332 70 349 2.6 9.6 0.00 0.87 0.06 53 1017.1
20220525102842 70 324 2.6 7.8 0.00 0.87 0.06 53 1017.0
20220525102334 70 333 1.7 7.8 0.00 0.87 0.06 54 1016.9
20220525101826 70 332 2.6 8.7 0.00 0.87 0.06 53 1016.9
20220525101340 70 343 2.6 8.7 0.00 0.87 0.06 55 1016.9
20220525100827 70 329 3.5 7.8 0.00 0.87 0.06 55 1016.9
20220525100332 69 330 1.7 5.2 0.00 0.87 0.06 55 1016.9
20220525095827 69 319 1.7 5.2 0.00 0.87 0.06 56 1016.9
20220525095339 69 344 0.9 8.7 0.00 0.87 0.06 56 1016.9
20220525094833 69 340 4.3 9.6 0.00 0.87 0.06 55 1016.8
20220525094325 69 338 0.9 9.6 0.00 0.87 0.06 55 1016.8
20220525093836 69 322 2.6 9.6 0.00 0.87 0.06 56 1016.7
20220525093326 69 331 2.6 6.1 0.00 0.87 0.06 55 1016.6
20220525092818 68 244 0.9 9.6 0.00 0.87 0.06 56 1016.6
20220525092333 68 329 0.9 9.6 0.00 0.87 0.06 55 1016.6
20220525091826 68 314 2.6 7.8 0.00 0.87 0.06 55 1016.7
20220525091339 68 304 1.7 9.6 0.00 0.87 0.06 54 1016.6
20220525090829 68 337 4.3 9.6 0.00 0.87 0.06 55 1016.5
20220525090321 68 304 0.9 9.6 0.00 0.87 0.06 56 1016.5
20220525085832 67 292 1.7 9.6 0.00 0.87 0.06 55 1016.4
20220525085324 68 322 4.3 8.7 0.00 0.87 0.06 53 1016.4
20220525084837 68 324 0.9 7.0 0.00 0.87 0.06 53 1016.3
20220525084328 68 340 0.9 9.6 0.00 0.87 0.06 55 1016.2
20220525083827 68 336 1.7 8.7 0.00 0.87 0.06 53 1016.2
20220525083341 67 345 3.5 10.4 0.00 0.87 0.06 53 1016.1
20220525082830 67 338 1.7 10.4 0.00 0.87 0.06 55 1016.1
20220525082345 67 338 1.7 8.7 0.00 0.87 0.06 55 1016.1
20220525081844 67 355 0.0 8.7 0.00 0.87 0.06 56 1016.0
20220525081336 66 303 0.9 7.0 0.00 0.87 0.06 56 1016.0
20220525080829 66 288 1.7 7.8 0.00 0.87 0.06 56 1016.0
20220525080339 66 277 0.0 7.8 0.00 0.87 0.06 56 1015.8
20220525075834 66 319 0.9 7.0 0.00 0.87 0.06 56 1015.8
20220525075325 65 355 1.7 7.0 0.00 0.87 0.06 57 1015.8
20220525074836 65 307 0.9 6.1 0.00 0.87 0.06 57 1015.6
20220525074328 64 319 1.7 6.1 0.00 0.87 0.06 58 1015.6
20220525073821 64 251 0.9 4.3 0.00 0.87 0.06 62 1015.5
20220525073316 63 254 1.7 7.8 0.00 0.87 0.06 61 1015.5
20220525072834 63 224 1.7 7.8 0.00 0.87 0.06 61 1015.4
20220525072321 63 284 0.0 5.2 0.00 0.87 0.06 62 1015.4
20220525071817 62 294 0.9 5.2 0.00 0.87 0.06 62 1015.3
20220525071334 62 264 1.7 7.0 0.00 0.87 0.06 62 1015.3
20220525070828 62 277 0.9 6.1 0.00 0.87 0.06 62 1015.1
20220525070340 62 246 0.9 6.1 0.00 0.87 0.06 63 1015.0
20220525065826 61 290 1.7 7.0 0.00 0.87 0.06 63 1015.0
20220525065338 61 298 0.9 7.0 0.00 0.87 0.06 63 1014.9
20220525064830 61 251 0.9 6.1 0.00 0.87 0.06 66 1014.9
20220525064321 61 301 0.9 7.0 0.00 0.87 0.06 66 1014.8
20220525063837 60 222 0.9 7.0 0.00 0.87 0.06 67 1014.8
20220525063328 60 226 0.9 6.1 0.00 0.87 0.06 69 1014.7
20220525062822 60 245 0.9 4.3 0.00 0.87 0.06 69 1014.7
20220525062316 60 266 1.7 4.3 0.00 0.87 0.06 69 1014.5
20220525061829 60 277 0.9 6.1 0.00 0.87 0.06 71 1014.4
20220525061320 59 232 2.6 6.1 0.00 0.87 0.06 72 1014.3
20220525060828 59 239 1.7 6.1 0.00 0.87 0.06 73 1014.2
20220525060319 59 239 1.7 6.1 0.00 0.87 0.06 74 1014.2
20220525055818 59 230 1.7 4.3 0.00 0.87 0.06 74 1014.1
20220525055332 59 230 1.7 5.2 0.00 0.87 0.06 75 1014.0
20220525054824 58 230 3.5 6.1 0.00 0.87 0.06 75 1013.9
20220525054319 58 227 2.6 7.0 0.00 0.87 0.06 76 1013.9
20220525053816 58 232 2.6 7.0 0.00 0.87 0.06 77 1013.8
20220525053330 58 237 1.7 7.0 0.00 0.87 0.06 77 1013.7
20220525052828 58 239 4.3 7.0 0.00 0.87 0.06 78 1013.6
20220525052322 58 232 0.9 6.1 0.00 0.87 0.06 78 1013.5
20220525051817 58 232 2.6 7.8 0.00 0.87 0.06 78 1013.4
20220525051332 58 243 4.3 8.7 0.00 0.87 0.06 78 1013.3
20220525050822 58 233 4.3 8.7 0.00 0.87 0.06 79 1013.3
20220525050316 57 237 1.7 5.2 0.00 0.87 0.06 79 1013.2
20220525045831 57 236 3.5 6.1 0.00 0.87 0.06 79 1013.1
20220525045323 57 232 3.5 6.1 0.00 0.87 0.06 80 1013.1
20220525044834 57 237 2.6 7.0 0.00 0.87 0.06 80 1013.1
20220525044329 57 234 1.7 7.0 0.00 0.87 0.06 80 1013.0
20220525043819 57 233 2.6 6.1 0.00 0.87 0.06 80 1013.0
20220525043336 57 221 1.7 5.2 0.00 0.87 0.06 80 1013.0
20220525042827 57 252 0.0 0.9 0.00 0.87 0.06 81 1012.9
20220525042322 57 252 0.0 0.9 0.00 0.87 0.06 81 1012.9
20220525041834 57 252 0.0 0.9 0.00 0.87 0.06 82 1012.8
20220525041326 57 252 0.0 2.6 0.00 0.87 0.06 82 1012.8
20220525040821 57 252 0.0 3.5 0.00 0.87 0.06 82 1012.8
20220525040327 58 248 0.9 3.5 0.00 0.87 0.06 83 1012.8
20220525035817 58 248 0.0 5.2 0.00 0.87 0.06 83 1012.7
20220525035331 58 248 2.6 5.2 0.00 0.87 0.06 83 1012.7
20220525034822 58 247 1.7 5.2 0.00 0.87 0.06 83 1012.6
20220525034317 58 269 0.0 2.6 0.00 0.87 0.06 83 1012.6
20220525033834 58 270 0.0 2.6 0.00 0.87 0.06 83 1012.6
20220525033328 58 270 0.0 4.3 0.00 0.87 0.06 82 1012.5
20220525032820 58 271 0.9 4.3 0.00 0.87 0.06 82 1012.5
20220525032335 59 269 0.9 3.5 0.00 0.87 0.06 82 1012.4
20220525031826 59 259 0.0 2.6 0.00 0.87 0.06 82 1012.4
20220525031338 59 259 0.9 2.6 0.00 0.87 0.06 82 1012.5
20220525030828 59 258 0.9 2.6 0.00 0.87 0.06 82 1012.5
20220525030347 59 274 0.9 2.6 0.00 0.87 0.06 82 1012.5
20220525025817 59 313 0.0 2.6 0.00 0.87 0.06 82 1012.4
20220525025333 59 313 0.0 2.6 0.00 0.87 0.06 82 1012.4
20220525024820 59 308 0.0 1.7 0.00 0.87 0.06 82 1012.4
20220525024316 59 308 0.0 2.6 0.00 0.87 0.06 82 1012.4
20220525023828 59 308 0.0 2.6 0.00 0.87 0.06 82 1012.5
20220525023320 60 308 0.0 3.5 0.00 0.87 0.06 81 1012.3
20220525022832 60 308 0.9 3.5 0.00 0.87 0.06 80 1012.4
20220525022322 60 308 0.9 6.1 0.00 0.87 0.06 80 1012.3
20220525021817 60 311 0.9 6.1 0.00 0.87 0.06 83 1012.4
20220525021334 60 323 0.9 4.3 0.00 0.87 0.06 81 1012.3
20220525020828 60 268 1.7 4.3 0.00 0.87 0.06 81 1012.3
20220525020333 60 269 0.9 5.2 0.00 0.87 0.06 81 1012.3
20220525015821 60 314 0.9 5.2 0.00 0.87 0.06 81 1012.3
20220525015313 60 306 0.9 3.5 0.00 0.87 0.06 81 1012.3
20220525014830 60 317 0.9 6.1 0.00 0.87 0.06 81 1012.3
20220525014321 60 292 0.9 2.6 0.00 0.87 0.06 82 1012.3
20220525013816 60 291 0.0 4.3 0.00 0.87 0.06 82 1012.3
20220525013331 60 292 0.9 4.3 0.00 0.87 0.06 82 1012.3
20220525012321 60 317 0.0 2.6 0.00 0.87 0.06 82 1012.3
20220525011831 60 317 0.0 1.7 0.00 0.87 0.06 82 1012.2
20220525011322 60 316 0.0 6.1 0.00 0.87 0.06 82 1012.2
20220525010817 60 316 1.7 6.1 0.00 0.87 0.06 82 1012.1
20220525010331 60 307 0.0 7.8 0.00 0.87 0.06 83 1012.2
20220525005823 60 307 0.0 7.8 0.00 0.87 0.06 82 1012.3
20220525005337 60 334 0.0 7.0 0.00 0.87 0.06 83 1012.3
20220525004827 60 334 1.7 5.2 0.00 0.87 0.06 83 1012.3
20220525004322 60 292 1.7 5.2 0.00 0.87 0.06 83 1012.3
20220525003816 60 261 0.9 5.2 0.00 0.87 0.06 84 1012.4
20220525003327 60 322 0.9 6.1 0.00 0.87 0.06 85 1012.3
20220525002816 60 274 1.7 8.7 0.00 0.87 0.06 86 1012.2
20220525002334 60 307 0.9 8.7 0.00 0.87 0.06 86 1012.3
20220525001822 60 313 0.9 4.3 0.00 0.87 0.06 86 1012.4
20220525001317 60 342 1.7 4.3 0.00 0.87 0.06 86 1012.4
20220525000831 60 347 0.9 8.7 0.00 0.87 0.06 87 1012.3
20220525000327 60 317 1.7 8.7 0.00 0.87 0.06 87 1012.3
20220524235816 60 249 0.9 7.8 0.00 0.87 0.06 88 1012.4
20220524235327 60 294 1.7 6.1 0.00 0.87 0.06 88 1012.4
20220524234820 60 257 0.9 5.2 0.00 0.87 0.06 88 1012.3
20220524234337 60 292 1.7 5.2 0.00 0.87 0.06 88 1012.5
20220524233828 60 300 0.9 5.2 0.00 0.87 0.06 88 1012.4
20220524233322 60 306 0.9 8.7 0.00 0.87 0.06 88 1012.4
20220524232837 60 333 1.7 8.7 0.04 0.87 0.06 87 1012.4
20220524232332 60 329 0.9 7.8 0.04 0.87 0.06 87 1012.4
20220524231824 60 313 0.9 9.6 0.20 0.87 0.06 87 1012.3
20220524231335 60 314 2.6 9.6 0.28 0.87 0.06 87 1012.4
20220524230827 60 315 1.7 7.8 0.28 0.87 0.06 87 1012.5
20220524230339 61 296 0.9 7.0 0.31 0.87 0.06 88 1012.4
20220524225827 61 311 1.7 12.2 0.31 0.87 0.06 88 1012.3
20220524225322 61 305 3.5 12.2 0.31 0.87 0.06 87 1012.4
20220524224834 61 355 4.3 11.3 0.31 0.87 0.06 87 1012.5
20220524224322 61 314 3.5 11.3 0.31 0.87 0.06 87 1012.4
20220524223816 61 355 1.7 8.7 0.31 0.87 0.06 87 1012.3
20220524223330 61 333 1.7 10.4 0.31 0.87 0.06 86 1012.3
20220524222822 62 326 2.6 11.3 0.28 0.83 0.06 86 1012.2
20220524222316 62 30 4.3 11.3 0.24 0.79 0.05 86 1012.1
20220524221830 62 315 0.9 5.2 0.24 0.67 0.02 86 1012.2
20220524221322 63 317 0.9 7.0 0.39 0.59 0.01 86 1012.3
20220524220832 63 288 1.7 11.3 0.35 0.55 0.00 85 1012.2
20220524220335 63 328 3.5 13.9 0.35 0.55 0.00 86 1011.8
20220524215828 63 317 4.3 14.8 0.35 0.55 0.11 87 1011.4
20220524215322 64 299 1.7 15.6 0.35 0.55 0.11 88 1011.0
20220524214820 65 355 2.6 15.6 0.35 0.55 0.11 88 1011.0
20220524214336 65 197 7.0 15.6 0.35 0.55 0.11 89 1010.8
20220524213827 66 355 3.5 12.2 0.35 0.55 0.11 89 1010.4
20220524213322 66 360 3.5 12.2 0.35 0.55 0.11 88 1010.3
20220524212833 66 263 1.7 6.1 0.35 0.55 0.11 88 1010.4
20220524212328 66 289 2.6 16.5 0.35 0.55 0.11 88 1010.2
20220524211830 66 295 1.7 16.5 0.16 0.35 0.07 88 1010.2
20220524211321 66 350 0.0 10.4 0.00 0.20 0.04 87 1010.0
20220524210831 66 355 1.7 10.4 0.00 0.20 0.04 87 1010.0
20220524210323 66 329 4.3 10.4 0.04 0.20 0.04 87 1009.8
20220524205835 66 324 2.6 12.2 0.04 0.20 0.04 87 1009.8
20220524205327 66 312 4.3 12.2 0.04 0.20 0.04 87 1009.6
20220524204841 66 315 4.3 11.3 0.04 0.20 0.04 87 1009.4
20220524204328 67 10 0.9 9.6 0.04 0.20 0.04 88 1009.2
20220524203824 67 336 0.9 9.6 0.04 0.20 0.04 87 1008.9
20220524203335 67 290 3.5 9.6 0.04 0.20 0.04 87 1008.9
20220524202829 67 317 3.5 11.3 0.04 0.20 0.04 87 1008.6
20220524202321 67 343 2.6 11.3 0.04 0.20 0.04 87 1008.7
20220524201830 68 319 1.7 9.6 0.04 0.20 0.04 87 1008.7
20220524201325 68 38 4.3 9.6 0.04 0.20 0.04 87 1008.5
20220524200837 69 312 0.0 3.5 0.04 0.20 0.04 88 1008.3
20220524200328 68 309 0.0 3.5 0.00 0.16 0.03 88 1008.1
20220524195822 68 309 0.9 3.5 0.00 0.16 0.03 88 1008.0
20220524195335 68 312 0.0 4.3 0.00 0.16 0.03 88 1008.0
20220524194824 68 285 0.9 4.3 0.00 0.16 0.03 89 1007.9
20220524194316 68 318 0.0 3.5 0.00 0.16 0.03 89 1007.9
20220524193830 69 318 0.9 4.3 0.00 0.16 0.03 89 1007.8
20220524193322 69 317 0.9 4.3 0.00 0.16 0.03 89 1007.7
20220524192837 69 317 0.0 1.7 0.00 0.16 0.03 89 1007.6
20220524192327 69 317 0.0 4.3 0.00 0.16 0.03 89 1007.6
20220524191823 69 318 0.9 5.2 0.00 0.16 0.03 89 1007.5
20220524191332 69 317 0.9 5.2 0.00 0.16 0.03 89 1007.4
20220524190820 69 351 0.9 6.1 0.00 0.16 0.03 89 1007.3
20220524190338 69 313 0.9 3.5 0.00 0.16 0.03 89 1007.3
20220524185827 69 319 0.0 8.7 0.00 0.16 0.03 89 1007.3
20220524185319 69 245 1.7 8.7 0.00 0.16 0.03 89 1007.0
20220524184830 70 323 1.7 6.1 0.00 0.16 0.03 89 1006.9
20220524184322 70 336 0.9 7.0 0.00 0.16 0.03 89 1006.9
20220524183832 70 319 1.7 7.0 0.00 0.16 0.03 89 1006.8
20220524183328 70 327 0.9 4.3 0.00 0.16 0.03 89 1006.4
20220524182817 70 338 0.0 6.1 0.00 0.16 0.03 89 1006.2
20220524182332 70 337 0.9 5.2 0.00 0.16 0.03 89 1006.1
20220524181825 70 327 1.7 5.2 0.00 0.16 0.03 89 1006.3
20220524181319 70 339 2.6 4.3 0.00 0.16 0.03 89 1006.3
20220524180817 70 264 0.9 4.3 0.00 0.16 0.03 89 1006.1
20220524180332 70 252 1.7 4.3 0.00 0.16 0.03 89 1006.0
20220524175826 70 248 0.0 2.6 0.00 0.16 0.03 89 1006.0
20220524175321 70 248 0.9 2.6 0.00 0.16 0.03 89 1006.1
20220524174835 70 248 0.9 4.3 0.00 0.16 0.03 88 1006.1
20220524174326 70 248 1.7 5.2 0.00 0.16 0.03 88 1006.3
20220524173838 70 248 2.6 5.2 0.04 0.16 0.03 88 1006.2
20220524173328 70 284 1.7 4.3 0.08 0.16 0.03 88 1006.0
20220524172823 70 340 0.9 2.6 0.08 0.16 0.03 88 1005.7
20220524172335 70 341 0.0 3.5 0.12 0.16 0.03 88 1005.3
20220524171829 70 342 1.7 3.5 0.12 0.16 0.03 88 1005.4
20220524171323 70 355 0.9 2.6 0.16 0.16 0.03 87 1005.1
20220524170835 70 355 0.0 1.7 0.16 0.16 0.03 87 1004.8
20220524170327 70 355 0.0 0.0 0.16 0.16 0.03 87 1005.3
20220524165822 70 355 0.0 0.0 0.16 0.16 0.03 87 1005.2
20220524165332 70 355 0.0 0.0 0.16 0.16 0.03 87 1005.4
20220524164817 71 355 0.0 1.7 0.16 0.16 0.03 87 1005.4
20220524164331 71 355 0.0 2.6 0.16 0.16 0.03 86 1005.6
20220524163827 71 355 0.9 2.6 0.12 0.12 0.02 86 1005.7
20220524163339 71 355 0.0 0.9 0.08 0.08 0.02 85 1005.8
20220524162831 71 355 0.0 0.9 0.04 0.04 0.01 85 1005.7
20220524162322 72 355 0.0 0.0 0.04 0.04 0.01 83 1005.9
20220524161836 72 355 0.0 0.0 0.04 0.04 0.01 83 1005.4
20220524161328 72 355 0.0 0.0 0.00 0.00 0.00 82 1005.5
20220524160841 72 355 0.0 0.0 0.00 0.00 0.00 81 1005.4
20220524160322 72 355 0.0 0.9 0.00 0.00 0.00 80 1005.5
20220524155838 73 355 0.0 0.9 0.00 0.00 0.00 80 1005.6
20220524155330 73 355 0.0 1.7 0.00 0.00 0.00 79 1005.6
20220524154822 73 355 0.0 2.6 0.00 0.00 0.00 79 1005.6
20220524154337 73 355 0.9 1.7 0.00 0.00 0.00 79 1005.6
20220524153823 74 355 0.0 2.6 0.00 0.00 0.00 79 1005.4
20220524153335 74 355 0.9 2.6 0.00 0.00 0.00 78 1005.3
20220524152832 74 355 0.0 3.5 0.00 0.00 0.00 77 1005.5
20220524152324 74 355 1.7 3.5 0.00 0.00 0.00 76 1005.4
20220524151836 75 355 0.9 3.5 0.00 0.00 0.00 75 1005.2
20220524151331 75 355 0.9 3.5 0.00 0.00 0.00 74 1005.4
20220524150827 75 355 0.9 3.5 0.00 0.00 0.00 74 1005.5
20220524150334 75 355 0.9 4.3 0.00 0.00 0.00 73 1005.6
20220524145824 76 355 0.0 6.1 0.00 0.00 0.00 73 1005.7
20220524145335 76 336 0.0 4.3 0.00 0.00 0.00 72 1005.4
20220524144827 77 336 0.9 4.3 0.00 0.00 0.00 71 1005.4
20220524144338 77 339 0.0 5.2 0.00 0.00 0.00 71 1005.4
20220524143835 77 344 1.7 4.3 0.00 0.00 0.00 69 1005.7
20220524143333 78 346 0.9 5.2 0.00 0.00 0.00 69 1005.8
20220524142826 78 346 1.7 6.1 0.00 0.00 0.00 69 1005.6
20220524142341 79 346 1.7 6.1 0.00 0.00 0.00 67 1005.7
20220524141832 80 340 0.9 8.7 0.00 0.00 0.00 69 1005.8
20220524141324 79 317 3.5 8.7 0.00 0.00 0.00 69 1005.9
20220524140835 79 329 1.7 7.8 0.00 0.00 0.00 68 1005.9
20220524140327 80 308 1.7 9.6 0.00 0.00 0.00 68 1006.2
20220524135842 80 331 2.6 7.8 0.00 0.00 0.00 68 1006.2
20220524135337 80 332 2.6 7.8 0.00 0.00 0.00 68 1006.2
20220524134827 80 333 2.6 7.8 0.00 0.00 0.00 67 1006.2
20220524134340 79 330 0.9 6.1 0.00 0.00 0.00 68 1006.2
20220524133828 79 322 0.9 4.3 0.00 0.00 0.00 70 1006.2
20220524133339 79 338 0.0 3.5 0.00 0.00 0.00 69 1006.2
20220524132831 79 338 0.9 5.2 0.00 0.00 0.00 68 1006.2